Location: Arpaise
(41.0333°N, 14.7333°E)
Time: 09:20:32
(UTC+00:00)

Cosmos 846 Rocket - Visible Passes

Search period start: 20 June 2021 00:00
Search period end: 30 June 2021 00:00
Orbit: 947 x 991 km, 82.9° (Epoch: 19 June)

Date Brightness Start Highest point End Pass type
(mag) Time Alt. Az. Time Alt. Az. Time Alt. Az.
20 Jun 6.0 00:44:54 25° SSE 00:48:16 53° E 00:54:12 10° NNE visible
20 Jun 6.8 02:29:27 11° WSW 02:33:51 23° WNW 02:38:34 10° NNW visible
20 Jun 7.7 23:25:02 10° ESE 23:27:27 12° E 23:29:51 10° NE visible
21 Jun 5.4 01:08:32 30° S 01:11:45 87° W 01:17:54 10° N visible
21 Jun 7.4 02:55:21 10° W 02:57:54 13° WNW 03:00:28 10° NW visible
21 Jun 7.2 23:47:36 16° ESE 23:50:33 23° E 23:55:12 10° NE visible
22 Jun 5.8 01:32:08 26° SW 01:35:22 50° WNW 01:41:19 10° N visible
23 Jun 6.3 00:11:11 27° SE 00:13:49 41° E 00:19:28 10° NNE visible
23 Jun 6.5 01:55:44 18° WSW 01:59:09 29° WNW 02:04:24 10° NNW visible
24 Jun 5.5 00:34:46 38° S 00:37:13 73° E 00:43:19 10° NNE visible
24 Jun 7.2 02:19:22 10° WSW 02:23:07 17° WNW 02:26:53 10° NNW visible
24 Jun 7.4 23:13:48 14° ESE 23:16:12 18° E 23:20:04 10° NE visible
25 Jun 5.5 00:58:20 37° SSW 01:00:47 65° W 01:06:52 10° N visible
25 Jun 6.7 23:37:21 26° ESE 23:39:23 32° E 23:44:41 10° NNE visible
26 Jun 6.2 01:21:53 26° WSW 01:24:29 37° WNW 01:30:07 10° N visible
27 Jun 5.8 00:00:53 41° SE 00:02:44 56° E 00:08:41 10° NNE visible
27 Jun 6.9 01:45:26 15° WSW 01:48:22 21° WNW 01:52:56 10° NNW visible
27 Jun 7.5 22:39:52 11° E 22:41:53 13° E 22:44:35 10° NE visible
28 Jun 5.4 00:24:25 49° SSW 00:26:13 84° W 00:32:22 10° N visible
28 Jun 7.4 02:10:15 10° W 02:12:27 12° WNW 02:14:37 10° NW visible
28 Jun 6.9 23:03:23 22° ESE 23:05:00 24° E 23:09:45 10° NNE visible
29 Jun 5.9 00:47:55 36° SW 00:49:51 48° WNW 00:55:45 10° N visible
29 Jun 6.1 23:26:53 37° ESE 23:28:16 43° E 23:33:59 10° NNE visible
